Location: Salamanca
(40.9670°N, 5.6500°W)
Time: 01:42:46
(UTC+01:00)

Daily predictions for brighter satellites

Satellite Brightness Start Highest point End
(mag) Time Altitude Azimuth Time Altitude Azimuth Time Altitude Azimuth
CZ-3 R/B 4.4 03:18:43 10° W 04:24:33 48° S 04:34:06 10° SE
Cosmos 2297 Rocket 4.5 04:59:19 19° E 04:59:19 19° E 05:02:28 10° NE
Cosmos 2227 Rocket 4.2 05:13:07 23° ENE 05:13:07 23° ENE 05:15:35 10° NE
Cosmos 2333 Rocket 3.7 05:44:00 28° SSE 05:44:00 28° SSE 05:46:34 10° SSE
Cosmos 2219 Rocket 4.1 06:05:47 17° S 06:05:47 17° S 06:07:01 10° S
USA 229 DEB 3.9 06:11:07 40° NNW 06:13:52 71° NE 06:21:05 10° SE
USA 229 3.9 06:11:11 40° NNW 06:13:58 70° NE 06:21:11 10° SE
Cosmos 1743 Rocket 4.2 06:17:49 49° NE 06:18:27 54° E 06:22:44 10° SSE
NOAA 6 4.0 06:20:15 10° NNE 06:25:28 80° ESE 06:30:40 10° S
Tsikada Rocket 3.9 06:19:20 10° N 06:25:46 84° W 06:32:04 10° S
Cosmos 968 Rocket 4.5 06:22:02 10° S 06:27:02 47° ESE 06:32:05 10° NNE
Feng Yun 1-1 Rocket 4.5 06:21:48 10° N 06:26:02 51° NNW 06:26:02 51° NNW
Cosmos 1842 Rocket 4.3 06:23:29 10° SSE 06:27:40 50° E 06:31:53 10° NNE
COSMO-SKYMED 1 2.8 06:24:14 10° SSE 06:28:30 66° ENE 06:29:31 48° NNE
SeaSat 1 4.5 06:24:41 10° N 06:25:45 16° N 06:25:45 16° N
Cosmos 2237 Rocket 2.5 06:30:29 48° SW 06:30:29 48° SW 06:35:05 10° S
Meteor 2-17 Rocket 4.3 06:25:31 10° SSW 06:31:28 62° W 06:37:28 10° N
SL-16 R/B 2.4 06:29:56 30° NNW 06:32:48 71° ENE 06:38:27 10° SSE
Cosmos 2297 Rocket 2.2 06:41:14 52° W 06:42:00 56° WNW 06:47:36 10° NNE
Cosmos 2151 4.0 06:40:13 10° N 06:44:17 45° ENE 06:48:21 10° SSE
Cosmos 1500 Rocket 3.6 06:43:02 20° N 06:46:03 78° E 06:50:29 10° S
Cosmos 783 Rocket 4.4 06:50:29 38° NW 06:52:20 62° WSW 06:57:29 10° S
Cosmos 1725 Rocket 4.2 06:47:07 10° SSW 06:53:05 47° WNW 06:59:07 10° N
SL-24 R/B 4.4 06:48:35 10° N 06:53:17 72° WNW 06:58:48 10° SSW
Cosmos 2227 Rocket 2.8 06:55:00 34° NW 06:55:00 34° NW 06:59:40 10° N
Meteor 1-16 Rocket 4.3 06:50:14 10° S 06:55:39 72° E 07:01:00 10° NNE
Cosmos 540 Rocket 3.8 06:58:52 39° W 06:59:13 39° WSW 07:03:56 10° S
USA 234 3.7 06:54:06 10° ESE 07:00:27 56° NE 07:05:21 18° NW
IDEFIX/ARIANE 42P 4.3 06:57:36 10° NNE 07:02:24 35° E 07:07:10 10° SSE
Cosmos 220 Rocket 3.9 06:58:18 10° SSW 07:02:43 72° WNW 07:07:07 10° NNE
Cosmos 1340 Rocket 3.4 07:03:08 10° N 07:07:00 55° ENE 07:10:52 10° SSE
NOSS 3-1 (C) 4.3 07:02:32 13° NNW 07:09:27 72° NE 07:17:47 10° SE
OAO 2 Rocket 4.1 07:07:07 24° WSW 07:09:33 42° S 07:14:11 10° ESE
BREEZE-M DEB (TANK) 4.2 07:11:50 20° NNW 07:11:59 20° N 07:13:57 10° NE
Cosmos 304 Rocket 3.7 07:09:24 22° NNW 07:12:20 59° WSW 07:17:01 10° S
Aureole 2 Rocket 3.6 07:15:31 32° W 07:16:06 33° WSW 07:19:52 10° SSW
SKYMED 2 4.1 07:12:43 10° SSW 07:16:41 35° W 07:18:11 27° WNW
Cosmos 1271 Rocket 2.6 07:13:45 10° S 07:17:35 88° W 07:21:24 10° N
Cosmos 1538 Rocket 4.0 07:15:05 10° NNW 07:20:28 78° WSW 07:25:49 10° SSE
SL-14 R/B 3.3 07:16:28 10° NNW 07:20:30 65° W 07:24:31 10° S
Meteor 1-28 Rocket 3.5 07:19:42 10° S 07:23:17 42° W 07:25:35 19° NW
YAOGAN 1 4.2 07:19:37 10° NNE 07:23:40 38° E 07:27:41 10° SSE
Cosmos 2333 Rocket 4.1 07:26:05 12° WSW 07:26:05 12° WSW 07:26:51 10° SW
Meteor 1-4 Rocket 3.3 07:26:12 10° SW 07:29:30 30° WNW 07:32:52 10° NNW
ISS -3.4 07:27:58 29° WNW 07:29:30 82° SW 07:32:44 10° SE
CZ-4 R/B 1.7 07:27:51 10° NNE 07:31:53 70° ESE 07:35:58 10° S
Ariane Rocket 3.1 07:28:28 10° N 07:33:23 50° WNW 07:38:17 10° SW
CSL-04 Debris 4.1 07:28:43 10° N 07:34:12 73° WNW 07:39:38 10° SSW
Cosmos 1666 Rocket 4.4 07:32:04 10° N 07:36:27 54° E 07:40:49 10° SSE
Cosmos 1603 3.7 07:30:56 10° NNW 07:36:36 86° ENE 07:42:15 10° SSE
Cosmos 1680 Rocket 4.3 07:32:10 10° N 07:37:21 52° ENE 07:42:32 10° SE
Cosmos 1626 2.4 07:39:41 10° N 07:43:26 71° E 07:47:08 10° SSE
SL-8 R/B 4.2 07:40:16 15° NW 07:44:03 51° NNE 07:48:43 10° E
Cosmos 2221 2.6 07:41:16 10° SSW 07:45:32 57° W 07:49:49 10° N
Cosmos 2263 Rocket 4.0 07:40:30 10° S 07:45:36 36° ESE 07:50:45 10° NE
ERBS 2.3 07:43:45 15° NW 07:46:32 85° NE 07:49:56 10° SE
Meteor 1-29 4.2 07:46:19 10° SSE 07:49:39 44° ENE 07:53:00 10° N
PSLV R/B 3.9 07:52:48 10° WSW 07:56:06 54° SSE 07:59:23 10° E
AQUARIUS 4.1 07:55:10 10° N 07:59:41 73° WNW 08:04:09 10° SSW
Cosmos 2034 Rocket 4.0 07:54:39 10° SSW 08:00:46 67° W 08:07:00 10° N
PAYLOAD A 4.2 07:56:18 10° N 08:01:07 44° WNW 08:05:43 10° SW
Cosmos 2227 4.4 07:58:35 10° SW 08:04:01 50° WNW 08:09:30 10° NNE
Cosmos 1908 3.3 08:00:21 10° S 08:04:10 83° E 08:08:00 10° N
MOS 1 4.4 07:58:43 10° NNE 08:04:27 88° WNW 08:10:09 10° SSW
Cosmos 2228 Rocket 3.7 08:00:19 10° S 08:04:42 64° E 08:09:06 10° NNE
Cosmos 2058 3.9 08:01:23 10° NNW 08:04:51 26° W 08:08:19 10° SSW
CSL-04 Rocket 4.3 08:00:26 10° N 08:05:07 33° WNW 08:09:46 10° SW
Coronas F rocket 1.1 08:03:11 10° N 08:05:35 77° E 08:07:58 10° S
CZ-2C R/B 2.3 08:01:05 10° N 08:05:36 56° WNW 08:10:04 10° SSW
Cosmos 389 Rocket 2.7 08:03:09 10° S 08:06:48 83° E 08:10:29 10° N
Cosmos 292 Rocket 3.8 08:03:05 10° NNW 08:07:51 72° WSW 08:12:37 10° S
Cosmos 2112 Rocket 4.1 08:06:14 10° NNW 08:11:35 89° NE 08:16:56 10° SSE
Nadezhda 4 Rocket 4.0 08:05:38 10° N 08:11:58 79° W 08:18:15 10° S
Cosmos 1805 Rocket 4.2 08:11:45 10° NNW 08:15:49 36° W 08:19:50 10° SSW
SL-16 R/B 3.8 08:13:03 10° WNW 08:16:14 15° W 08:19:24 10° SW
NOSS 3-1 (A) 4.3 08:11:02 10° NW 08:18:37 63° WSW 08:26:53 10° SSE
